This is the latest recevied weather packets stored in our database for station/object EA5LU-10. If no packets are shown the sender has not sent any weather packets the latest 10 day(s).
| Time | Temp. | Humidity | Pressure | Rain* | Wind** | Luminosity | Snow |
|---|---|---|---|---|---|---|---|
| 1777429011 | 17.78° C | 76% | 1001.2 hPa | - | - | - | - |
| 1777428110 | 18.33° C | 76% | 1001.3 hPa | - | - | - | - |
| 1777427209 | 18.33° C | 76% | 1001.3 hPa | - | - | - | - |
| 1777426308 | 18.33° C | 76% | 1001 hPa | - | - | - | - |
| 1777425408 | 18.33° C | 76% | 1001.2 hPa | - | - | - | - |
| 1777424521 | 18.33° C | 76% | 1001 hPa | - | - | - | - |
| 1777423606 | 18.33° C | 75% | 1001.1 hPa | - | - | - | - |
| 1777422767 | 18.89° C | 75% | 1001.3 hPa | - | - | - | - |
| 1777422721 | 18.89° C | 75% | 1001.3 hPa | - | - | - | - |
| 1777421804 | 18.33° C | 76% | 1001.3 hPa | - | - | - | - |
| 1777420904 | 18.33° C | 76% | 1001.3 hPa | - | - | - | - |
| 1777420003 | 18.33° C | 77% | 1001.2 hPa | - | - | - | - |
| 1777419102 | 18.33° C | 76% | 1001.3 hPa | - | - | - | - |
| 1777418201 | 18.33° C | 77% | 1001.4 hPa | - | - | - | - |
| 1777417300 | 18.33° C | 76% | 1001.4 hPa | - | - | - | - |
| 1777416399 | 18.33° C | 77% | 1001.3 hPa | - | - | - | - |
| 1777415499 | 18.33° C | 77% | 1001.4 hPa | - | - | - | - |
| 1777414598 | 18.33° C | 77% | 1001.7 hPa | - | - | - | - |
| 1777413697 | 18.89° C | 76% | 1001.3 hPa | - | - | - | - |
| 1777412796 | 19.44° C | 74% | 1001.4 hPa | - | - | - | - |
| 1777411895 | 19.44° C | 73% | 1001.5 hPa | - | - | - | - |
| 1777410994 | 20° C | 72% | 1001.6 hPa | - | - | - | - |
| 1777410094 | 20° C | 73% | 1002 hPa | - | - | - | - |
| 1777409193 | 20° C | 72% | 1002.1 hPa | - | - | - | - |
| 1777408292 | 20° C | 72% | 1002.2 hPa | - | - | - | - |
* Rain since midnight (hover to see other rain measurements)
** Current wind speed in m/s (hover to see current wind gust speed)